#timestamp,LO_Frequency,Hit,StdDev 
1571594415.2,286047001.4,N
1571594435.0,286047000.4,N
1571594435.9,286047000.4,N
1571594455.8,286047001.4,N
1571594475.6,286047002.5,N
1571594495.4,286047000.5,N
1571594515.3,286047001.5,N
1571594535.1,286047003.7,N
1571594555.9,286047003.5,N
1571594575.7,286047005.0,Y
1571594595.5,286047005.8,P
1571594615.4,286047003.4,N
1571594635.2,286047004.3,N
1571594655.0,286047003.8,N
1571594656.0,286047003.8,N
1571594675.8,286047001.6,N
1571594695.6,286047004.3,Y
1571594715.5,286046999.9,P
1571594735.3,286047004.1,N
1571594755.1,286047001.7,N
1571594775.9,286047004.0,N
1571594795.7,286047002.0,N
1571594815.6,286047001.5,N
1571594835.4,286047001.1,N
1571594855.2,286047002.3,N
1571594875.1,286047002.2,N
1571594876.0,286047002.2,N
1571594895.8,286047001.3,N
1571594915.6,286047001.5,N
1571594935.5,286047001.4,N
1571594955.3,286047002.4,N
1571594975.2,286047002.8,N
1571594995.9,286047001.6,N
1571595015.7,286047002.2,N
1571595035.6,286047000.0,N
1571595055.4,286047001.8,N
1571595075.2,286047002.1,N
1571595095.1,286047001.9,N
1571595096.0,286047001.9,N
1571595115.8,286047001.8,N
1571595135.7,286047004.0,Y
1571595155.5,286047002.3,P
1571595175.3,286046999.8,N
1571595195.2,286047002.3,N
1571595215.0,286047002.5,N
1571595215.9,286047002.5,N
1571595235.8,286047002.4,N
1571595255.6,286047000.1,N
1571595275.4,286047000.0,N
1571595295.3,286046999.8,N
1571595315.1,286047002.4,N
1571595335.8,286047000.5,N
1571595355.7,286047002.3,N
1571595375.5,286047002.4,N
1571595395.4,286047002.1,N
1571595415.2,286047001.6,N
1571595435.0,286047003.7,Y
1571595435.9,286047003.7,P
1571595455.8,286047002.5,N
1571595475.6,286047002.7,P
1571595495.5,286047002.8,Y
1571595515.3,286046999.3,P
1571595535.1,286047000.7,N
1571595555.9,286047001.1,N
1571595575.7,286046999.9,N
1571595595.5,286047000.7,N
1571595615.4,286046998.1,N
1571595635.2,286046998.1,N
1571595655.1,286046998.1,N
1571595656.0,286046998.1,N
1571595675.8,286046998.2,N
1571595695.6,286047000.0,N
1571595715.5,286047000.0,N
1571595735.3,286047000.9,N
1571595755.1,286047000.9,N
1571595775.9,286046998.6,N
1571595795.7,286046998.7,N
1571595815.6,286046999.0,N
1571595835.4,286047001.1,N
1571595855.2,286046998.4,N
1571595875.1,286047001.2,N
1571595876.0,286047001.2,N
1571595895.8,286047000.6,N
1571595915.6,286047000.4,N
1571595935.5,286047001.1,N
1571595955.3,286046998.3,N
1571595975.2,286046998.5,N
1571595995.9,286047000.9,N
1571596015.7,286046998.3,N
1571596035.6,286047000.4,N
1571596055.4,286047001.1,N
1571596075.2,286047001.0,N
1571596125.1,286046999.6,E
1571596135.0,286046999.0,N
1571596135.9,286046999.0,P
1571596155.8,286046999.1,P
1571596175.6,286046998.3,Y
1571596195.5,286046998.9,P
1571596215.3,286046998.6,P
1571596235.1,286047000.9,P
1571596255.9,286047000.9,N
1571596275.7,286047000.0,N
1571596295.5,286046999.9,N
1571596315.4,286047002.4,N
1571596335.2,286047000.2,N
1571596355.1,286046999.1,N
1571596356.0,286046999.1,N
1571596375.8,286047000.6,N
1571596395.6,286047002.7,N
1571596415.5,286047000.1,N
1571596435.3,286046998.9,N
1571596455.1,286046997.3,N
1571596475.9,286046998.0,N
1571596495.7,286046999.1,N
1571596515.6,286046998.6,N
1571596535.4,286046998.4,N
1571596555.2,286047000.2,N
1571596575.1,286046998.3,N
1571596576.0,286046998.3,N
1571596595.8,286046998.6,N
1571596615.6,286046999.2,N
1571596635.5,286046997.0,N
1571596655.3,286046997.4,N
1571596675.2,286046999.6,N
1571596695.9,286046999.5,N
1571596715.7,286046998.1,N
1571596735.6,286046998.3,N
1571596755.4,286047000.3,N
1571596775.3,286046998.1,N
1571596795.1,286047000.5,N
1571596796.0,286047000.5,N
1571596815.8,286047002.8,N
1571596835.7,286046999.9,N
1571596855.5,286047000.1,N
1571596875.3,286047000.5,N
1571596895.2,286046999.8,N
1571596915.0,286047000.9,N
1571596915.9,286047000.9,N
1571596935.8,286047000.9,N
1571596955.6,286047000.7,N
1571596975.4,286046998.5,N
1571596995.3,286046998.3,N
1571597015.1,286046999.3,N
1571597035.9,286046996.6,N
1571597055.7,286046997.4,N
1571597075.5,286046997.3,N
1571597095.4,286046996.6,N
1571597115.2,286046998.3,N
1571597135.0,286046999.2,N
1571597135.9,286046999.2,N
1571597155.8,286046996.8,N
1571597175.6,286046999.1,N
1571597195.5,286046998.3,N
1571597215.3,286047000.8,N
1571597235.1,286047000.6,N
1571597255.9,286047001.2,N
1571597275.7,286046998.8,N
1571597295.5,286047001.2,N
1571597315.4,286046998.4,N
1571597335.2,286046999.5,N
1571597355.1,286047001.2,N
1571597356.0,286047001.2,N
1571597375.8,286046999.7,N
1571597395.6,286047002.5,N
1571597415.5,286047002.8,N
1571597435.3,286047002.7,N
1571597455.2,286047000.1,N
1571597475.9,286047000.1,N
1571597495.7,286047000.5,N
1571597515.6,286047000.4,N
1571597535.4,286047000.0,N
1571597555.2,286047000.1,N
1571597575.1,286047000.1,N
1571597576.0,286047000.1,N
1571597595.8,286047000.6,N
1571597615.7,286047000.8,N
1571597635.5,286047000.5,N
1571597655.3,286046998.3,N
1571597675.2,286047000.2,N
1571597695.9,286047000.2,N
1571597715.7,286046999.7,N
1571597735.6,286047004.0,Y
1571597755.4,286047002.7,P
1571597775.3,286047000.4,N
1571597795.1,286047000.5,N
1571597796.0,286047000.5,N
1571597815.8,286046999.7,N
1571597835.7,286047000.5,N
1571597855.5,286047000.6,N
1571597875.3,286046998.7,N
1571597895.2,286046998.2,N
1571597915.0,286046998.6,N
1571597915.9,286046998.6,N
1571597935.8,286046998.9,N
1571597955.6,286047001.2,N
1571597975.4,286046999.5,N
1571597995.3,286046998.6,N
